NWS2066 UWUU-UUEE

Flight info

Callsign NWS2066
Flight time N/A
Altitude 36000
Route TILMU3M TILMU N985 ORTIM L158 DIMGI DIMGI3E
Aircraft A321/M-SDFGHIRWY/LB1

Departure

Time 2026-04-27 12:39
Airport Ufa International Airport (UWUU)

Arrival

Time N/A
Airport Sheremetyevo International Airport (UUEE)
Time Latitude Longitude Altitude Speed Heading
2026-04-27 12:22 54.56463 55.88331 455 ft 0 kts 61°
2026-04-27 12:30 54.56452 55.88296 455 ft 4 kts 59°
2026-04-27 12:30 54.56436 55.88259 455 ft 4 kts 42°
2026-04-27 12:30 54.56418 55.88242 455 ft 4 kts 340°
2026-04-27 12:31 54.56413 55.88247 455 ft 1 kts 296°
2026-04-27 12:33 54.56415 55.88240 455 ft 3 kts 296°
2026-04-27 12:33 54.56421 55.88179 455 ft 8 kts 259°
2026-04-27 12:33 54.56388 55.88065 455 ft 13 kts 239°
2026-04-27 12:34 54.56334 55.87903 456 ft 18 kts 240°
2026-04-27 12:34 54.56265 55.87691 455 ft 22 kts 240°
2026-04-27 12:34 54.56182 55.87436 455 ft 26 kts 240°
2026-04-27 12:34 54.56087 55.87142 455 ft 30 kts 240°
2026-04-27 12:35 54.55978 55.86814 455 ft 33 kts 240°
2026-04-27 12:35 54.55862 55.86461 456 ft 32 kts 240°
2026-04-27 12:35 54.55904 55.86293 457 ft 20 kts 335°
2026-04-27 12:35 54.56044 55.86160 457 ft 25 kts 330°
2026-04-27 12:36 54.56212 55.86000 458 ft 30 kts 331°
2026-04-27 12:36 54.56404 55.85819 456 ft 33 kts 331°
2026-04-27 12:36 54.56616 55.85612 458 ft 37 kts 330°
2026-04-27 12:36 54.56855 55.85379 458 ft 41 kts 333°
2026-04-27 12:37 54.57095 55.85148 456 ft 24 kts 332°
2026-04-27 12:37 54.57261 55.85087 456 ft 27 kts 350°
2026-04-27 12:37 54.57283 55.84975 457 ft 16 kts 173°
2026-04-27 12:37 54.57232 55.85014 456 ft 0 kts 148°
2026-04-27 12:38 54.57228 55.85018 456 ft 4 kts 148°
2026-04-27 12:38 54.57014 55.85224 455 ft 74 kts 150°
2026-04-27 12:38 54.56359 55.85856 457 ft 139 kts 150°
2026-04-27 12:39 54.55412 55.86784 847 ft 158 kts 151°
2026-04-27 12:39 54.54437 55.87745 1617 ft 165 kts 152°
2026-04-27 12:39 54.53441 55.88908 1978 ft 183 kts 141°
2026-04-27 12:39 54.52707 55.90823 2343 ft 208 kts 116°
2026-04-27 12:40 54.52558 55.93414 2913 ft 230 kts 87°
2026-04-27 12:40 54.53223 55.96001 3606 ft 247 kts 58°
2026-04-27 12:40 54.54435 55.98179 4307 ft 256 kts 50°
2026-04-27 12:40 54.55738 56.00310 5029 ft 261 kts 50°
2026-04-27 12:41 54.57053 56.02499 5765 ft 264 kts 50°
2026-04-27 12:41 54.58370 56.04731 6485 ft 267 kts 50°
2026-04-27 12:41 54.59727 56.06946 7162 ft 272 kts 41°
2026-04-27 12:41 54.61447 56.08324 7801 ft 277 kts
2026-04-27 12:42 54.63366 56.08068 8291 ft 281 kts 334°
2026-04-27 12:42 54.65101 56.06471 8765 ft 288 kts 322°
2026-04-27 12:42 54.66817 56.04610 9438 ft 293 kts 322°
2026-04-27 12:42 54.68565 56.02776 10154 ft 298 kts 323°
2026-04-27 12:43 54.70403 56.00910 10491 ft 315 kts 324°
2026-04-27 12:43 54.72364 55.98980 10765 ft 334 kts 325°
2026-04-27 12:43 54.74446 55.96953 11022 ft 351 kts 325°
2026-04-27 12:43 54.76442 55.94539 11306 ft 357 kts 311°
2026-04-27 12:44 54.77943 55.91165 11800 ft 352 kts 292°
2026-04-27 12:44 54.78715 55.87161 12411 ft 344 kts 274°
2026-04-27 12:44 54.78891 55.83091 13045 ft 343 kts 267°
2026-04-27 12:44 54.78966 55.78930 13680 ft 346 kts 267°
2026-04-27 12:45 54.79047 55.74740 14250 ft 349 kts 267°
2026-04-27 12:45 54.79144 55.70529 14809 ft 352 kts 267°
2026-04-27 12:45 54.79246 55.66274 15375 ft 355 kts 267°
2026-04-27 12:45 54.79357 55.61980 15935 ft 357 kts 267°
2026-04-27 12:46 54.79467 55.57660 16493 ft 360 kts 267°
2026-04-27 12:46 54.79577 55.53314 17060 ft 362 kts 267°
2026-04-27 12:46 54.79687 55.48936 17601 ft 365 kts 267°
2026-04-27 12:46 54.79800 55.44568 18120 ft 368 kts 266°
2026-04-27 12:47 54.79913 55.40135 18603 ft 370 kts 266°
2026-04-27 12:47 54.80023 55.35668 19067 ft 372 kts 266°
2026-04-27 12:47 54.80129 55.31178 19515 ft 374 kts 266°
2026-04-27 12:47 54.80234 55.26660 19986 ft 376 kts 265°
2026-04-27 12:48 54.80339 55.22098 20418 ft 379 kts 265°
2026-04-27 12:48 54.80441 55.17523 20867 ft 381 kts 265°
2026-04-27 12:48 54.80542 55.12913 21289 ft 384 kts 265°
2026-04-27 12:48 54.80642 55.08271 21709 ft 386 kts 265°
2026-04-27 12:49 54.80740 55.03606 22124 ft 389 kts 265°
2026-04-27 12:49 54.80837 54.98909 22521 ft 391 kts 265°
2026-04-27 12:49 54.80932 54.94240 22912 ft 394 kts 265°
2026-04-27 12:49 54.81030 54.89475 23287 ft 396 kts 265°
2026-04-27 12:50 54.81127 54.84690 23642 ft 398 kts 265°
2026-04-27 12:50 54.81220 54.79880 23978 ft 400 kts 265°
2026-04-27 12:50 54.81312 54.75040 24296 ft 401 kts 265°
2026-04-27 12:50 54.81402 54.70200 24625 ft 403 kts 265°
2026-04-27 12:51 54.81491 54.65327 24949 ft 404 kts 265°
2026-04-27 12:51 54.81578 54.60443 25270 ft 406 kts 265°
2026-04-27 12:51 54.81662 54.55540 25594 ft 408 kts 265°
2026-04-27 12:51 54.81746 54.50616 25911 ft 409 kts 265°
2026-04-27 12:52 54.81827 54.45663 26219 ft 411 kts 265°
2026-04-27 12:52 54.81908 54.40701 26548 ft 413 kts 264°
2026-04-27 12:52 54.81986 54.35776 26819 ft 414 kts 264°
2026-04-27 12:52 54.82062 54.30773 27109 ft 416 kts 264°
2026-04-27 12:53 54.82222 54.20700 27681 ft 420 kts 265°
2026-04-27 12:53 54.82619 54.15615 27956 ft 432 kts 275°
2026-04-27 12:53 54.83373 54.10537 28237 ft 436 kts 277°
2026-04-27 12:54 54.84184 54.05454 28561 ft 436 kts 277°
2026-04-27 12:54 54.84981 54.00380 28917 ft 435 kts 276°
2026-04-27 12:54 54.85766 53.95314 29293 ft 434 kts 276°
2026-04-27 12:54 54.86541 53.90261 29664 ft 433 kts 276°
2026-04-27 12:55 54.87310 53.85217 30010 ft 432 kts 276°
2026-04-27 12:55 54.88064 53.80245 30283 ft 431 kts 276°
2026-04-27 12:55 54.88827 53.75210 30545 ft 431 kts 276°
2026-04-27 12:55 54.89589 53.70176 30857 ft 430 kts 276°
2026-04-27 12:56 54.90346 53.65148 31105 ft 430 kts 276°
2026-04-27 12:56 54.91102 53.60115 31364 ft 430 kts 276°
2026-04-27 12:56 54.91862 53.55079 31626 ft 430 kts 276°
2026-04-27 12:56 54.92617 53.50056 31885 ft 429 kts 276°
2026-04-27 12:57 54.93370 53.45025 32145 ft 429 kts 276°
2026-04-27 12:57 54.94118 53.40005 32404 ft 428 kts 275°